#timestamp,LO_Frequency,Hit,StdDev 
1560294015.7,286047004.3,N
1560294035.5,286047004.0,N
1560294055.3,286047001.3,N
1560294075.2,286047002.1,N
1560294095.0,286047004.3,N
1560294095.9,286047004.3,N
1560294115.7,286047001.8,N
1560294135.6,286047003.9,N
1560294155.4,286047004.1,Y
1560294175.3,286047000.6,P
1560294195.1,286047000.6,N
1560294196.0,286047000.6,N
1560294215.8,286047000.3,N
1560294235.7,286046999.8,N
1560294255.5,286047000.5,N
1560294275.3,286047000.4,N
1560294295.2,286046998.4,N
1560294315.0,286047001.0,N
1560294315.9,286047001.0,N
1560294335.8,286047001.2,N
1560294355.6,286047001.0,N
1560294375.4,286046998.2,N
1560294395.3,286047001.1,N
1560294415.1,286046996.6,Y
1560294435.9,286046997.7,P
1560294455.7,286046999.1,N
1560294475.5,286046998.3,N
1560294495.4,286046996.7,Y
1560294515.2,286046998.9,P
1560294535.1,286047001.2,P
1560294536.0,286047001.2,N
1560294555.8,286047000.9,N
1560294575.6,286047001.0,N
1560294595.5,286046999.8,N
1560294615.3,286047001.0,N
1560294635.1,286047000.7,N
1560294655.9,286046998.1,N
1560294675.7,286047001.0,N
1560294695.6,286047000.8,N
1560294715.4,286046999.7,N
1560294735.2,286047000.5,N
1560294755.1,286047002.0,N
1560294756.0,286047002.0,N
1560294775.8,286047002.7,N
1560294795.6,286047002.7,N
1560294815.5,286047002.5,N
1560294835.3,286047002.3,N
1560294855.2,286047005.9,Y
1560294875.9,286047004.4,P
1560294895.7,286047001.7,N
1560294915.6,286047001.6,N
1560294935.4,286047002.3,N
1560294955.2,286047000.3,N
1560294975.1,286047002.3,N
1560294976.0,286047002.3,N
1560294995.8,286047000.6,N
1560295015.7,286047000.0,N
1560295035.5,286046999.8,N
1560295055.3,286047000.8,N
1560295075.2,286047000.0,N
1560295095.9,286047000.0,N
1560295115.7,286046999.7,N
1560295135.6,286047000.8,N
1560295155.4,286046998.3,N
1560295175.2,286046997.4,N
1560295195.1,286046996.6,N
1560295196.0,286046996.6,N
1560295215.8,286046999.4,N
1560295235.7,286046996.6,N
1560295255.5,286046997.1,N
1560295275.3,286046996.7,N
1560295295.2,286046997.9,N
1560295315.0,286046995.0,N
1560295315.9,286046995.0,N
1560295335.7,286046995.7,N
1560295355.6,286046995.1,N
1560295375.4,286046997.8,N
1560295395.3,286046997.8,N
1560295415.1,286046995.3,N
1560295416.0,286046995.3,N
1560295435.8,286046995.7,N
1560295455.7,286046995.6,N
1560295475.5,286046995.8,N
1560295495.3,286046995.5,N
1560295515.2,286046996.1,N
1560295535.0,286046995.0,N
1560295535.9,286046995.0,N
1560295555.8,286046996.0,N
1560295575.6,286046995.9,N
1560295595.4,286046996.1,N
1560295615.3,286046998.0,N
1560295635.1,286046995.4,Y
1560295655.8,286047001.0,P
1560295675.7,286047000.9,N
1560295695.5,286047000.2,N
1560295715.4,286047000.1,N
1560295735.2,286047002.4,N
1560295755.0,286047001.5,N
1560295755.9,286047001.5,N
1560295775.1,286047001.7,N
1560295795.8,286047001.9,N
1560295815.7,286047002.6,N
1560295835.5,286046998.3,N
1560295855.4,286047000.7,N
1560295875.2,286047000.4,N
1560295895.0,286047000.9,N
1560295895.9,286047000.9,N
1560295915.8,286047001.0,N
1560295935.6,286047000.4,N
1560295955.4,286047000.3,N
1560295975.3,286047002.7,N
1560295995.1,286047000.0,N
1560296015.9,286046999.9,N
1560296035.7,286046998.5,N
1560296055.5,286047001.2,N
1560296075.4,286047000.2,N
1560296095.2,286047000.4,N
1560296115.0,286046998.5,N
1560296115.9,286046998.5,N
1560296135.8,286047000.4,N
1560296155.6,286046996.5,N
1560296175.5,286046997.1,N
1560296195.3,286046999.3,N
1560296215.1,286046998.5,N
1560296235.9,286046998.6,N
1560296255.7,286046998.3,N
1560296275.5,286046998.9,N
1560296295.4,286047000.7,N
1560296315.2,286046999.4,N
1560296335.1,286046999.6,N
1560296336.0,286046999.6,N
1560296355.8,286046998.4,N
1560296375.6,286046998.1,N
1560296395.5,286046999.4,N
1560296415.3,286046998.8,N
1560296435.1,286047000.6,N
1560296455.9,286046998.5,N
1560296475.7,286047000.9,N
1560296495.6,286046998.2,N
1560296515.4,286046999.1,N
1560296535.2,286046996.9,N
1560296555.1,286046996.5,Y
1560296556.0,286046996.5,P
1560296575.8,286047000.6,N
1560296595.6,286047000.2,N
1560296615.5,286047000.3,N
1560296635.3,286047001.1,N
1560296655.2,286047001.2,N
1560296675.9,286046999.6,N
1560296695.7,286047000.8,N
1560296715.6,286046996.9,N
1560296735.4,286046996.6,N
1560296755.2,286046999.1,N
1560296775.1,286047000.3,N
1560296776.0,286047000.3,N
1560296795.8,286047000.1,N
1560296815.7,286047000.2,N
1560296835.5,286047000.9,N
1560296855.3,286047000.4,N
1560296875.2,286046996.6,N
1560296895.0,286046999.1,N
1560296895.9,286046999.1,N
1560296915.7,286046998.3,N
1560296935.6,286047002.3,N
1560296955.4,286047002.8,N
1560296975.3,286047002.4,N
1560296995.1,286047000.2,N
1560296996.0,286047000.2,N
1560297015.8,286046999.8,N
1560297035.7,286047001.8,N
1560297055.5,286047001.5,N
1560297075.3,286047002.0,N
1560297095.2,286047003.9,N
1560297115.0,286047004.3,N
1560297115.9,286047004.3,N
1560297135.8,286047003.3,N
1560297155.6,286047003.2,N
1560297175.4,286047004.4,N
1560297195.3,286047001.7,N
1560297215.1,286047002.8,N
1560297235.9,286047004.4,N
1560297255.7,286047004.0,N
1560297275.5,286047003.6,N
1560297295.4,286047003.2,N
1560297315.2,286047003.9,N
1560297335.0,286047003.8,N
1560297336.0,286047003.8,N
1560297355.8,286047001.4,N
1560297375.6,286047002.4,N
1560297395.5,286047002.5,N
1560297415.3,286047002.5,N
1560297435.1,286047002.1,N
1560297455.9,286047003.4,N
1560297475.7,286047003.2,N
1560297495.6,286047005.4,Y
1560297515.4,286047002.3,P
1560297535.2,286047002.7,P
1560297555.1,286047002.5,P
1560297556.0,286047002.5,Y
1560297575.8,286046999.6,P
1560297595.7,286046999.6,N
